Temperature
11 11 11 11 11 11 11 11 11 11 11 11 11 12 12 12 12 12 12 12 13 12 12 12 12 12 12 12 12 12 12 12 12 12 12 12 12 11 11 11 11 11 11
11 11 11 11 10 10 10 10 10 10 10 11 11 11 11 11 11 11 11 12 12 12 12 12 12 12 11 11 12 11 12 12 11 11 11 11 11 11 11 11 11 11 10
10 10 10 10 10 10 10 10 10 10 10 10 10 10 10 10 10 11 11 11 11 11 11 11 11 11 11 11 11 11 11 11 11 11 11 11 11 11 11 11 11 11 10
10 9 9 9 9 9 9 9 9 9 9 9 9 10 10 10 10 10 10 10 10 10 10 10 11 11 10 10 10 10 10 10 11 11 11 11 11 10 10 10 10 10 10
9 9 9 9 9 9 8 8 8 8 8 8 9 9 9 10 10 10 10 10 9 10 10 10 10 10 10 10 10 10 10 10 10 10 10 10 10 10 10 10 10 10 10
9 9 8 8 8 8 8 8 8 8 8 8 8 8 9 9 9 9 9 9 9 9 9 9 9 9 10 10 10 10 10 10 10 10 10 10 10 10 10 10 10 9 9
8 8 8 8 8 8 8 7 7 7 7 7 7 7 8 8 8 8 8 8 8 8 9 9 9 9 9 9 9 9 9 9 9 9 9 9 9 9 9 9 9 9 9
8 8 8 7 7 7 7 7 7 7 7 7 6 7 7 8 8 8 8 8 8 8 8 8 8 8 8 8 9 9 9 9 9 9 9 9 9 9 9 9 9 9 8
8 8 7 7 7 7 7 7 7 6 6 6 6 6 7 8 7 7 7 8 8 8 8 8 8 8 8 8 8 8 8 9 9 9 8 8 8 8 8 8 8 8 8
7 7 7 7 7 7 7 6 6 6 6 6 6 6 6 7 6 7 7 7 7 7 7 7 7 7 8 8 8 8 8 8 8 8 8 8 8 8 8 8 8 8 8
7 7 7 7 7 6 6 6 6 6 6 6 6 6 6 6 6 6 6 6 7 7 7 7 7 7 7 7 7 7 8 8 8 8 8 8 8 8 8 8 8 8 7
7 7 7 7 6 6 6 6 6 6 6 6 6 6 6 5 6 6 6 6 6 6 6 6 6 6 7 7 7 7 7 7 7 7 7 7 7 8 7 7 7 7 7
7 7 7 6 6 6 6 6 6 6 5 5 5 5 5 5 6 6 6 5 5 5 6 6 6 6 6 6 6 6 7 7 7 7 7 7 7 7 7 7 7 7 6
7 6 6 6 6 6 6 6 5 5 5 5 5 5 5 5 5 5 5 5 5 5 5 5 5 6 6 6 6 6 6 6 6 6 7 7 7 7 7 6 6 6 6
7 6 6 6 6 6 6 6 5 5 5 5 5 5 5 5 5 5 5 5 5 5 5 5 5 5 5 5 5 5 6 6 6 6 6 6 6 6 6 6 6 6 6
6 6 6 6 6 6 6 5 5 5 5 5 5 4 5 5 5 4 5 5 5 5 4 4 4 5 5 5 5 5 5 6 6 6 6 6 6 6 6 6 5 5 5
6 6 6 6 5 5 5 5 5 5 5 5 4 4 4 4 4 4 4 4 4 4 4 4 4 4 4 4 5 5 5 5 5 5 5 5 5 5 5 5 5 5 4
6 6 5 5 5 5 5 5 5 5 5 4 4 4 4 4 4 4 4 4 4 4 4 4 4 4 4 4 4 4 4 5 5 5 5 5 5 5 5 5 4 4 4
5 5 5 5 5 5 5 5 5 4 4 4 4 4 4 4 4 4 4 4 4 3 3 3 3 3 3 3 3 4 4 4 4 4 4 4 4 4 4 4 4 4 4
5 5 5 5 5 5 5 4 4 4 4 4 4 4 4 4 3 3 3 3 3 3 3 3 3 3 3 3 3 3 3 4 4 4 3 4 4 4 3 3 3 3 3
5 5 5 5 5 4 4 4 4 4 3 3 3 3 3 3 3 3 3 3 3 3 3 3 3 3 3 2 2 2 3 3 3 3 3 3 3 3 3 3 3 3 3
5 5 5 4 4 4 4 4 4 3 3 3 3 3 3 3 3 3 3 3 3 3 3 3 2 2 2 2 2 2 2 2 2 2 2 2 2 2 2 2 2 2 2
5 4 4 4 4 4 4 4 4 3 3 3 3 3 3 3 3 3 3 3 3 2 2 2 2 2 2 1 2 2 2 1 1 1 1 1 2 2 1 1 2 2 2
4 4 4 4 4 4 4 4 3 3 3 3 3 3 3 3 2 2 2 2 2 2 2 2 2 2 1 1 1 1 1 1 1 1 1 0 1 1 1 1 1 1 1
4 4 4 4 3 3 3 3 3 3 3 3 3 3 2 2 2 2 2 2 2 2 1 1 1 1 1 1 1 1 1 1 0 0 -0 -0 -0 0 0 0 0 1 1
4 3 3 3 3 3 3 3 3 3 2 2 2 2 2 2 2 2 2 1 1 1 1 1 1 1 1 1 1 1 0 0 -0 -1 -1 -1 -1 -1 -1 -1 -0 -0 0
Wind_Speed
2 2 2 2 3 3 4 4 4 5 5 5 6 7 7 7 7 7 6 8 9 10 11 11 10 11 11 11 10 10 9 9 11 11 12 13 14 14 13 14 14 14 14
2 3 3 3 3 4 4 4 5 5 5 5 6 7 7 7 8 7 7 8 10 11 11 12 12 11 12 12 12 11 11 11 11 11 11 12 13 14 15 15 15 15 15
3 3 4 4 4 4 5 5 5 5 5 6 7 7 7 8 8 8 8 7 8 10 11 11 12 12 12 12 13 12 12 12 12 12 12 11 12 14 15 16 16 16 16
4 4 4 4 4 4 4 4 4 5 5 6 6 6 6 7 8 8 7 7 7 7 9 11 12 12 12 12 12 12 12 12 12 13 13 13 12 14 15 15 16 16 17
5 4 4 4 4 4 4 5 5 5 6 6 6 7 6 7 7 7 8 8 8 7 8 9 11 12 12 12 12 12 12 12 12 13 14 14 14 14 15 16 15 16 16
5 5 4 5 4 4 4 5 6 5 6 6 6 6 6 7 7 7 7 7 7 8 8 8 8 8 10 11 12 12 12 12 12 13 14 15 16 16 16 16 16 16 16
5 5 4 5 4 5 5 6 6 6 5 5 5 5 6 6 7 6 5 6 6 7 7 7 6 6 7 10 11 11 12 12 13 13 14 15 16 16 17 16 16 16 16
5 5 5 5 5 5 6 6 6 5 5 4 4 4 4 4 5 5 5 5 6 5 6 6 7 6 7 7 7 9 11 13 14 14 14 14 16 17 17 17 17 16 17
5 6 6 6 6 6 6 7 7 7 5 5 4 3 3 4 4 4 5 5 5 5 5 6 7 7 8 7 7 8 10 12 14 15 15 15 15 16 17 17 17 17 16
6 6 6 7 7 6 7 7 7 7 7 6 5 5 5 4 4 4 4 5 6 6 7 6 7 8 8 7 7 9 9 11 13 14 15 15 16 16 17 17 16 17 17
5 6 6 6 7 7 8 8 8 7 7 7 6 5 5 5 6 4 5 5 5 5 6 7 6 6 7 7 6 7 9 11 12 13 14 14 15 15 16 17 17 17 16
4 5 5 6 7 7 8 8 7 8 8 8 6 6 5 5 5 5 6 6 6 5 6 5 5 5 6 6 7 7 9 10 12 13 14 14 15 15 15 16 15 15 15
4 5 5 5 6 6 7 7 7 7 7 8 8 7 6 6 5 5 5 5 6 6 6 5 4 4 5 6 6 7 9 10 11 12 13 14 14 14 15 15 15 15 14
5 5 5 5 6 6 6 6 6 6 6 7 8 7 6 5 5 5 5 5 5 6 5 5 3 4 4 5 6 8 8 9 10 12 13 13 13 13 14 13 13 13 13
5 5 5 5 5 5 5 5 6 6 6 6 6 7 6 5 5 5 4 5 5 6 6 5 4 4 4 5 7 7 8 8 10 12 12 13 13 13 13 12 12 11 10
5 5 5 5 5 5 4 5 5 5 5 5 5 6 5 4 4 4 4 5 5 5 6 5 5 5 5 6 7 8 8 10 11 12 12 11 11 10 9 9 10 10 10
4 4 4 4 4 4 4 4 4 4 5 4 5 5 5 4 4 3 3 4 4 4 5 6 5 5 6 6 6 7 7 7 7 8 10 10 9 8 8 8 9 9 9
4 4 4 4 4 4 4 4 4 4 4 4 4 4 4 3 4 3 3 3 3 4 4 5 5 5 6 6 7 7 6 6 6 7 9 9 8 7 8 8 8 9 8
3 3 3 3 3 3 4 3 3 3 3 3 3 3 3 3 3 3 3 3 3 3 3 4 5 5 5 5 6 6 7 6 6 7 7 7 6 7 8 8 8 7 7
3 3 3 3 3 3 3 2 2 2 2 2 2 2 2 2 3 3 3 3 2 2 2 3 4 4 5 5 5 6 6 6 6 6 6 6 6 7 7 8 7 6 6
3 2 2 3 2 2 2 2 1 1 1 2 1 2 2 2 2 2 2 2 2 2 2 3 3 4 4 4 5 5 5 6 6 5 5 5 5 5 5 6 6 6 6
2 2 2 2 1 1 1 1 1 1 1 1 1 1 2 1 1 1 2 2 3 3 3 3 4 4 5 5 5 5 5 5 5 5 6 6 5 5 5 5 5 6 6
2 1 1 1 1 2 2 2 2 0 1 1 1 1 1 1 1 1 2 3 4 4 4 4 4 5 5 5 5 5 5 5 5 6 6 6 5 5 5 4 5 6 5
1 1 1 1 1 2 3 3 3 1 1 1 1 1 1 1 1 1 2 2 3 4 4 3 3 4 4 4 5 5 5 5 5 4 5 4 5 5 5 5 5 5 5
1 0 0 0 1 2 3 3 2 1 1 2 2 1 0 0 0 1 1 1 2 3 4 4 3 3 4 5 5 4 4 3 4 4 3 3 4 5 5 4 4 5 4
0 1 1 1 1 2 3 3 3 1 1 2 2 2 1 1 1 2 1 1 2 3 3 3 3 4 4 4 5 4 4 3 3 3 3 3 4 4 4 3 4 5 5
Wind_Direction
265 273 278 277 268 266 259 255 258 253 253 255 247 242 241 241 241 238 235 218 233 243 247 247 247 245 245 245 242 240 241 244 246 245 241 236 235 235 237 239 240 242 242
269 267 268 271 271 270 268 260 260 259 255 255 254 247 246 245 244 241 243 228 227 240 247 248 248 249 248 248 247 244 244 245 248 250 249 247 243 240 239 240 241 243 243
267 272 269 269 272 273 272 264 260 259 260 258 257 251 247 245 248 245 242 241 235 234 242 248 250 251 253 252 251 248 248 249 251 252 252 254 253 249 245 243 243 243 244
262 272 269 269 271 273 273 267 261 261 260 261 261 254 249 244 248 248 243 242 243 244 242 246 250 252 254 255 255 252 252 253 254 253 255 254 258 256 252 250 247 246 246
259 263 265 270 267 266 267 266 261 262 266 264 263 259 253 248 249 245 244 244 245 247 251 246 246 249 253 256 257 257 257 259 260 260 259 258 258 260 256 253 252 249 248
259 260 261 266 267 263 264 264 267 264 264 267 269 268 262 253 246 242 245 245 247 249 252 252 246 244 248 256 261 262 263 264 264 265 266 265 261 262 258 257 254 254 252
256 256 258 258 256 255 260 265 267 267 265 266 273 279 269 256 248 239 244 249 249 250 250 248 250 256 254 251 258 264 267 270 270 271 271 271 269 269 262 258 257 254 254
257 252 252 255 251 251 253 256 259 258 266 254 260 277 269 260 244 250 242 242 249 251 254 259 255 260 267 262 256 259 269 272 272 273 275 276 272 272 268 261 259 256 255
261 257 255 255 251 248 249 249 250 247 252 256 244 251 257 257 288 247 242 241 245 252 256 259 260 263 264 267 268 261 265 273 275 275 275 275 273 275 270 264 262 257 255
258 252 252 252 250 248 247 247 246 246 241 247 249 248 262 272 268 275 258 249 259 260 259 257 258 260 261 263 268 277 275 276 277 278 278 277 274 275 277 268 265 262 258
260 257 253 250 249 247 248 246 246 244 240 242 243 245 256 260 256 264 275 275 272 266 266 261 261 265 263 262 268 276 285 284 283 283 284 282 281 277 281 275 268 264 261
267 261 258 253 251 247 245 244 244 242 242 243 245 240 241 246 248 254 265 269 273 275 269 264 260 262 263 265 266 274 281 287 287 286 286 285 283 282 283 279 275 271 265
272 269 266 262 256 252 248 243 242 241 242 243 244 243 241 246 247 251 254 270 284 290 284 273 262 261 263 272 273 277 278 282 288 289 287 286 282 285 286 278 277 274 266
266 270 268 266 264 261 253 244 243 242 242 242 244 244 240 247 246 249 251 263 281 287 287 286 288 279 277 282 285 281 277 281 286 290 289 284 282 281 282 278 279 275 268
265 263 265 264 261 258 255 249 243 241 240 242 243 244 241 244 246 249 250 247 254 271 277 289 297 297 301 297 292 286 284 286 287 289 288 287 281 277 276 276 279 275 270
264 260 260 260 261 257 252 248 248 235 236 241 242 241 241 246 246 249 247 249 254 259 273 292 300 303 299 294 295 294 292 289 283 283 284 288 287 278 278 278 279 274 270
264 259 260 257 259 259 253 245 244 234 235 243 244 241 242 245 247 249 248 245 251 255 263 288 298 302 297 301 305 304 302 302 298 294 292 291 293 293 285 282 284 277 274
261 264 262 254 253 250 248 244 241 232 235 240 244 243 243 245 250 254 252 248 255 262 258 275 291 298 300 307 307 307 310 311 307 315 304 299 296 299 295 286 285 280 278
257 267 264 261 258 252 247 244 239 228 232 238 241 242 244 244 255 261 263 258 261 273 269 264 284 296 303 310 311 310 312 310 313 317 313 309 306 304 302 293 286 278 276
253 269 270 271 262 250 246 242 236 227 236 242 245 252 253 249 256 265 264 258 258 265 267 268 284 296 303 308 306 312 317 321 320 317 318 314 310 304 305 300 286 276 271
256 265 275 283 275 254 240 243 241 236 247 248 261 276 282 274 274 270 266 259 259 264 272 278 283 293 298 304 305 309 309 320 321 323 319 317 313 310 307 302 284 280 280
255 271 284 292 300 313 318 281 259 220 264 263 280 314 327 330 310 289 286 302 300 274 269 278 283 284 293 299 306 307 312 318 315 331 328 316 314 308 305 303 299 291 285
250 267 296 317 330 360 31 56 48 359 256 280 290 313 325 331 325 345 20 5 350 332 302 283 280 290 293 300 303 305 308 308 305 318 321 312 319 317 320 318 318 308 297
243 254 298 326 345 11 35 44 43 28 3 344 321 295 282 306 337 12 9 357 349 348 336 322 308 310 314 312 304 299 300 306 306 311 317 301 315 319 325 320 330 319 309
265 246 348 9 3 13 39 47 40 42 35 5 351 345 327 282 55 332 337 343 349 354 15 21 5 346 339 334 321 310 305 306 306 312 327 310 315 325 323 326 344 346 328
237 84 67 49 32 25 38 45 41 70 49 16 3 0 18 56 23 335 318 318 324 329 339 346 351 351 342 345 338 320 302 295 295 303 332 325 315 329 328 332 341 348 355
Height
1491 1491 1490 1489 1489 1488 1488 1487 1487 1487 1487 1488 1488 1488 1489 1489 1490 1490 1489 1489 1490 1491 1491 1492 1492 1493 1493 1493 1493 1493 1494 1494 1494 1494 1494 1494 1494 1494 1494 1494 1494 1494 1494
1488 1488 1487 1486 1486 1485 1484 1484 1484 1483 1484 1484 1484 1484 1485 1485 1485 1485 1485 1485 1486 1486 1487 1488 1488 1488 1489 1489 1489 1489 1489 1489 1490 1490 1489 1489 1489 1489 1489 1490 1490 1490 1490
1485 1484 1484 1483 1482 1482 1481 1481 1480 1480 1479 1479 1479 1480 1480 1480 1480 1481 1481 1481 1481 1482 1482 1483 1484 1484 1484 1484 1484 1484 1484 1485 1485 1485 1485 1485 1485 1484 1484 1484 1484 1484 1485
1482 1481 1480 1479 1479 1478 1477 1477 1476 1476 1476 1475 1475 1475 1475 1475 1476 1476 1476 1477 1477 1477 1478 1478 1479 1479 1480 1480 1480 1480 1480 1480 1480 1480 1480 1480 1480 1480 1479 1479 1479 1479 1479
1478 1478 1477 1476 1475 1474 1474 1474 1473 1473 1472 1472 1471 1471 1471 1471 1471 1471 1471 1472 1473 1473 1474 1474 1474 1475 1475 1475 1475 1475 1475 1475 1475 1475 1475 1474 1474 1474 1474 1473 1473 1473 1473
1475 1474 1473 1472 1471 1471 1470 1470 1470 1469 1469 1468 1467 1467 1466 1466 1466 1466 1467 1468 1468 1469 1469 1470 1470 1470 1470 1470 1470 1471 1470 1470 1470 1470 1469 1469 1468 1468 1468 1467 1468 1468 1468
1471 1470 1469 1468 1468 1467 1466 1466 1466 1465 1465 1465 1464 1463 1462 1462 1462 1462 1463 1463 1464 1464 1465 1465 1466 1466 1465 1465 1465 1465 1465 1465 1465 1464 1464 1463 1463 1462 1462 1461 1461 1461 1462
1466 1465 1465 1464 1464 1463 1463 1462 1462 1462 1461 1461 1461 1460 1459 1459 1458 1458 1458 1458 1459 1460 1460 1461 1461 1461 1460 1460 1460 1460 1460 1460 1459 1459 1458 1458 1457 1457 1456 1455 1455 1455 1455
1462 1461 1461 1460 1460 1459 1458 1458 1458 1458 1457 1458 1458 1459 1458 1455 1454 1453 1453 1454 1456 1456 1456 1456 1456 1456 1456 1455 1455 1455 1455 1454 1454 1453 1452 1452 1451 1451 1450 1449 1448 1448 1448
1458 1457 1456 1456 1455 1454 1454 1454 1453 1453 1453 1453 1454 1454 1455 1454 1453 1450 1450 1450 1452 1452 1452 1452 1452 1451 1451 1450 1450 1450 1449 1449 1448 1447 1446 1446 1445 1445 1444 1443 1443 1442 1442
1454 1453 1452 1451 1450 1450 1449 1449 1449 1449 1449 1449 1449 1450 1450 1450 1450 1449 1447 1446 1446 1447 1447 1447 1447 1446 1446 1446 1445 1445 1444 1443 1443 1442 1441 1440 1439 1438 1437 1437 1436 1436 1436
1450 1449 1448 1446 1446 1445 1445 1445 1444 1444 1444 1445 1445 1445 1445 1446 1445 1446 1445 1443 1442 1443 1443 1442 1441 1441 1441 1441 1440 1439 1439 1438 1437 1436 1435 1434 1433 1432 1431 1431 1430 1430 1429
1446 1445 1444 1443 1442 1441 1441 1440 1440 1440 1440 1440 1440 1440 1441 1442 1442 1442 1442 1440 1439 1438 1438 1438 1437 1437 1437 1436 1435 1434 1433 1432 1431 1430 1429 1428 1427 1426 1425 1425 1424 1424 1423
1442 1441 1440 1439 1438 1438 1437 1436 1436 1436 1436 1436 1436 1436 1436 1437 1437 1437 1438 1437 1436 1435 1434 1434 1433 1433 1432 1432 1431 1430 1428 1426 1425 1424 1423 1422 1421 1420 1419 1419 1418 1418 1417
1438 1437 1436 1435 1435 1434 1433 1432 1432 1432 1432 1432 1432 1432 1432 1433 1433 1433 1433 1434 1434 1431 1430 1430 1429 1429 1428 1428 1427 1425 1423 1421 1420 1418 1417 1416 1415 1414 1413 1413 1413 1412 1411
1435 1434 1432 1432 1431 1430 1429 1428 1428 1428 1428 1428 1428 1428 1428 1429 1429 1429 1429 1430 1430 1429 1426 1425 1425 1425 1425 1424 1422 1421 1418 1416 1414 1413 1411 1410 1409 1408 1407 1407 1406 1406 1406
1432 1431 1429 1428 1427 1426 1426 1425 1424 1424 1424 1424 1425 1425 1425 1425 1426 1426 1426 1426 1426 1426 1423 1422 1422 1421 1421 1420 1418 1416 1413 1411 1409 1407 1406 1405 1404 1402 1401 1401 1401 1401 1401
1429 1428 1426 1425 1424 1423 1422 1422 1421 1421 1421 1421 1421 1421 1421 1422 1422 1422 1422 1422 1422 1422 1421 1419 1418 1418 1417 1416 1414 1412 1409 1407 1405 1403 1402 1401 1399 1397 1396 1396 1395 1395 1395
1426 1425 1423 1422 1421 1420 1420 1419 1419 1418 1418 1418 1418 1418 1418 1419 1419 1419 1419 1419 1419 1419 1418 1417 1415 1415 1414 1413 1411 1408 1406 1404 1402 1400 1399 1397 1395 1393 1392 1391 1390 1390 1390
1423 1422 1421 1420 1418 1417 1417 1416 1416 1415 1415 1416 1416 1416 1416 1416 1417 1417 1417 1417 1417 1416 1416 1415 1413 1412 1411 1410 1408 1406 1403 1401 1399 1398 1396 1394 1392 1390 1389 1387 1386 1386 1386
1421 1420 1419 1417 1416 1415 1414 1414 1413 1413 1413 1413 1414 1414 1414 1414 1415 1415 1415 1414 1415 1414 1414 1413 1411 1410 1408 1407 1405 1403 1401 1399 1397 1395 1393 1391 1389 1387 1385 1384 1382 1381 1381
1418 1418 1416 1415 1414 1413 1413 1412 1412 1411 1412 1412 1412 1412 1412 1413 1413 1413 1413 1413 1413 1413 1412 1411 1409 1408 1406 1405 1403 1401 1400 1397 1394 1394 1391 1388 1387 1384 1382 1380 1378 1378 1377
1416 1415 1415 1414 1413 1412 1412 1411 1411 1411 1411 1411 1411 1410 1410 1411 1411 1411 1411 1411 1411 1410 1410 1409 1407 1406 1404 1403 1401 1399 1398 1396 1394 1392 1389 1386 1384 1381 1379 1376 1375 1374 1373
1414 1414 1413 1413 1412 1411 1411 1411 1411 1410 1410 1410 1409 1409 1409 1409 1409 1409 1409 1409 1408 1408 1407 1407 1406 1404 1403 1401 1400 1398 1396 1393 1392 1390 1388 1385 1382 1380 1377 1375 1373 1371 1371
1413 1412 1412 1411 1411 1410 1410 1410 1410 1410 1409 1409 1408 1408 1408 1408 1408 1408 1408 1407 1406 1405 1405 1404 1403 1402 1401 1399 1398 1396 1394 1392 1390 1389 1387 1384 1381 1378 1375 1373 1372 1370 1369
1411 1411 1411 1411 1410 1410 1410 1410 1410 1409 1408 1407 1407 1407 1407 1406 1406 1407 1406 1405 1404 1404 1403 1402 1401 1400 1398 1397 1396 1394 1393 1391 1389 1387 1386 1383 1381 1378 1375 1373 1372 1370 1368